Погода в Хирардоте

Колумбия     4°17′50″N   74°48′03″W
темп.,
°C
ветер,
м/с
пор.,
м/с
влажн.,
%
обл.,
%
осадки,
мм/ч
давл.,
гПа
погр.,
м
16 октября, сб
сб1601:00+22ююз2287100 2.7 101024
04:00+21вюв1192100 1.3 101117
07:00+23ссв1285100 2.3 1014142
10:00+27сз1268100 0.0 1014913
13:00+30сз225860 0.0 10101398
16:00+30вюв016137 0.0 1007501
19:00+25вюв1174100 0.3 100913
22:00+24св2282100 0.9 101122
17 октября, вс
вс1701:00+23всв1289100 2.6 101124
04:00+22юз2293100 2.7 101241
07:00+22ююв119395 3.5 1015110
10:00+26юз227698 0.6 1015861
13:00+28ююз236969 2.2 1010933
16:00+24ююв2285100 1.1 101040
19:00+23юв008797 1.4 101211
22:00+22вюв118665 0.0 101312
18 октября, пн
пн1801:00+21ююв11877 0.0 101112
04:00+20юв118477 0.0 101111
07:00+22юв007745 0.0 101498
10:00+27сз11665 0.0 1014795
13:00+30сз115698 0.0 10091241
16:00+30ссв1158100 0.0 1006828
19:00+25св117199 0.1 100814
22:00+23ссв2281100 0.1 101033
19 октября, вт
вт1901:00+21всв118864 0.9 101114
04:00+20в118789 0.9 101211
07:00+22вюв118091 1.6 1015108
10:00+26ссз1171100 0.1 1015687
13:00+30ссз115752 0.1 10101305
16:00+30с215627 0.0 10071139
19:00+25всв12726 0.1 100914
22:00+23св117852 0.1 101214
20 октября, ср
ср2001:00+21св129152 1.9 101219
04:00+21в119196 0.8 101211
07:00+22юз118949 3.7 1015128
10:00+27ссз127229 0.7 1015773
13:00+30ссз225618 0.8 10101329
16:00+31сз1155100 0.1 10071178
19:00+26ююв1171100 0.9 101016
22:00+23св1191100 3.7 101224